sat.trackr.live / text

‹ back to catalog

STARLINK-6275

NORAD 56772 · 2023-078F

PAYLOAD ACTIVE UNKNOWN

§ Identity

Operator
Country
US
Launch date
2023-05-31
Launch site
AFWTR
Launch vehicle
Mass (kg)
RCS (m²)

Purposes: comms

External: N2YO · Heavens-Above · Gunter

§ Orbital elements

Epoch: 2026-05-25T02:27:59.817888Z

Period
96.11 min
Inclination
69.9984°
Eccentricity
0.0003908
Mean motion
14.98331120 rev/d
Perigee alt
569.3 km
Apogee alt
574.8 km
Semi-major
6,950.2 km
B*
1.7217e-5
RAAN
171.7663°
Arg perigee
267.4373°
Mean anomaly
92.6338°
Rev number
16,363

§ Raw data

STARLINK-62751 56772U 23078F   26145.10277567  .00000112  00000+0  17217-4 0  99952 56772  69.9984 171.7663 0003908 267.4373  92.6338 14.98331120163639

JSON: /api/v1/satellites/56772 · /tle

For live sub-satellite position, see the globe view (requires WebGL).

§ Visibility from observer

Set your observer location to see the next 7 days of passes ≥ 10°. The values pass through the URL so the page stays shareable.

No JS? Fill the form by hand. The geolocation button needs JavaScript.